Regional Weather Roundup
Issued by NWS

Home | Current Version | Previous Version | Text Only | Print | Product List | Glossary On
Versions: 1 2 3 4 5 6 7 8 9 10 11 12 13 14 15 16 17 18 19 20 21 22 23 24 25 26 27 28 29 30 31 32 33 34 35 36 37 38 39 40 41 42 43 44 45 46 47 48 49 50
546
ASUS44 KFWD 230115
RWRTX
NORTH TEXAS HOURLY WEATHER ROUNDUP
NATIONAL WEATHER SERVICE FORT WORTH TX
700 PM CST MON JAN 22 2018

NOTE: "FAIR" INDICATES FEW OR NO CLOUDS BELOW 12,000 FEET WITH NO
SIGNIFICANT WEATHER AND/OR OBSTRUCTIONS TO VISIBILITY.

TXZ118-119-230200-
DALLAS/FORT WORTH METROPLEX

CITY           SKY/WX    TMP DP  RH WIND       PRES   REMARKS
DFW AIRPORT    FAIR      55  21  26 NW13      30.07R
DALLAS LOVE    FAIR      55  22  27 NW9       30.08R
FTW MEACHAM    FAIR      53  20  27 NW9       30.09R
DAL-EXECUTIVE  FAIR      68  21  16 NW14      30.07R
FTW-ALLIANCE   FAIR      52  20  28 NW8       30.08R
FTW-NAS-JRB    FAIR      53  21  28 NW9       30.10R
FTW-SPINKS     CLEAR     52  19  28 W6        30.11R
ARLINGTON      FAIR      54  19  25 NW10      30.09R
GRAND PRAIRIE  FAIR      55  19  23 W6        30.10R
MESQUITE       CLEAR     54  19  26 W9G16     30.08R
LANCASTER      FAIR      54  20  27 NW14      30.09R
$$

TXZ091>094-102>105-117-120-121-131>134-230200-
NORTH CENTRAL TEXAS

CITY           SKY/WX    TMP DP  RH WIND       PRES   REMARKS
SHRMAN/DENISON FAIR      49  24  36 NW13      30.08R
GAINESVILLE    FAIR      46  21  37 N5        30.10R
BOWIE          FAIR      47  21  35 NW8       30.08R
BRIDGEPORT     FAIR      51  21  31 NW6       30.11R
DECATUR        FAIR      49  19  30 NW7       30.07R
DENTON         FAIR      49  22  34 NW8       30.08R
MCKINNEY       FAIR      51  25  36 NW13      30.07R
BONHAM         FAIR      49  25  38 NW12G17   30.06R
GREENVILLE     FAIR      52  27  37 W5        30.07R
ROCKWALL       FAIR      53  24  33 NW10G16   30.08R
TERRELL        FAIR      52  24  33 NW9       30.08R
WAXAHACHIE     FAIR      52  24  33 NW5       30.10R
CLEBURNE       FAIR      48  18  29 NW7       30.12R
GRANBURY       FAIR      50  17  27 W5        30.12R
$$

TXZ083>090-098>101-113>116-127>130-139>142-154-155-230200-
WESTERN NORTH TEXAS

CITY           SKY/WX    TMP DP  RH WIND       PRES   REMARKS
WICHITA FALLS  FAIR      47  17  30 NW10      30.08R
WF-KICKAPOO    FAIR      51  17  25 NW7       30.11R
VERNON         FAIR      46   1  15 NW5       30.11R
ABILENE        FAIR      48  12  23 W6        30.14R
ABILENE-DYESS  FAIR      47  12  24 W7        30.14R
GRAHAM           N/A     49  15  25 NW3       30.10R
BRECKENRIDGE   FAIR      50  14  24 W3        30.12R
CISCO          FAIR      48   9  20 NW5       30.12R
EASTLAND       FAIR      39  10  29 CALM      30.12R
RANGER         FAIR      46  14  27 NW3       30.12R
MINERAL WELLS  FAIR      49  15  25 NW10      30.09R
STEPHENVILLE   FAIR      50  13  22 NW3       30.14R
COMANCHE       FAIR      49  15  26 W5        30.13R
BROWNWOOD      FAIR      48  10  21 CALM      30.14R
COLEMAN        FAIR      49  12  22 W5        30.15R
$$

TXZ143>147-156>162-174-175-230200-
CENTRAL TEXAS

CITY           SKY/WX    TMP DP  RH WIND       PRES   REMARKS
WACO           FAIR      50  20  30 NW8       30.11R
WACO-TSTC      CLEAR     50  19  29 NW3       30.11R
WACO-MCGREGOR  FAIR      52  19  27 W6        30.12R
HILLSBORO      FAIR      47  20  35 NW6       30.09R
CORSICANA      FAIR      47  26  44 W8        30.10R
MEXIA          FAIR      53  20  27 NW8       30.09R
HEARNE         FAIR      50  27  40 NW3       30.12R
CAMERON        FAIR      52  23  31 NW6       30.12R
TEMPLE         FAIR      52  19  27 NW6       30.13R
KILLEEN        FAIR      54  15  21 W8        30.12R
KILLEEN-SKYLRK FAIR      51  18  27 NW6       30.13R
FORT HOOD      FAIR      51  16  25 NW5       30.09R
GATESVILLE     FAIR      50  16  25 CALM      30.14R
HAMILTON       FAIR      47  16  28 NW8       30.14R
LAMPASAS       FAIR      49  16  26 NW5       30.13R
$$

TXZ095>097-106>112-122>126-135>138-148>153-164>167-230200-
EAST TEXAS

CITY           SKY/WX    TMP DP  RH WIND       PRES   REMARKS
PARIS          FAIR      49  28  44 W10       30.04R
SULPHUR SPRNGS FAIR      50  28  42 W8        30.07R
MOUNT PLEASANT FAIR      51  28  41 W7        30.05R
GILMER         FAIR      51  26  37 W6        30.04R
MINEOLA        FAIR      52  25  35 W6        30.06R
TYLER          FAIR      52  22  30 W7        30.06R
LONGVIEW       FAIR      51  27  39 W6        30.04R
MARSHALL       FAIR      53  23  31 W6        30.05R
ATHENS         FAIR      50  21  32 NW3       30.07R
PALESTINE      FAIR      53  22  30 W6        30.08R
JACKSONVILLE   FAIR      52  24  33 W7        30.08R
CENTER         FAIR      53  20  27 W5        30.05R
NACOGDOCHES    FAIR      51  24  34 NW7       30.06R
LUFKIN         FAIR      54  24  31 W3        30.05R
$$

SUPPLEMENTAL OBSERVATIONS (NWS FORT WORTH AREA)

CITY           SKY/WX    TMP DP  RH WIND       PRES   REMARKS
DENISON DAM      N/A     50  30  46 CALM        N/A
PAT MAYSE LAKE   N/A     50  23  34 W13         N/A
GREENVILLE       N/A     50  27  40 W7          N/A
CEDAR HILL       N/A     54  23  30 NW5G13      N/A
COMANCHE         N/A     48  12  23 W7          N/A
MCGREGOR         N/A     52  18  25 NW2         N/A
LAKE LIMESTONE   N/A     54  23  30 NW6         N/A
$$

SUPPLEMENTAL OBSERVATIONS (NWS NORMAN AREA)

CITY           SKY/WX    TMP DP  RH WIND       PRES   REMARKS
GOODLETT         N/A     44   4  20 NW9       30.12R WCI  38
ODELL            N/A     43  10  25 NW9       30.12R WCI  38
CROWELL          N/A     48   8  19 NW6       30.13R
KNOX CITY        N/A     48   4  16 NW5       30.14R
SEYMOUR          N/A     45   8  22 W8        30.12R
MILLERS CREEK    N/A     46   7  19 W6          N/A
$$

SUPPLEMENTAL OBSERVATIONS (NWS SAN ANGELO AREA)

CITY           SKY/WX    TMP DP  RH WIND       PRES   REMARKS
WEINERT          N/A     44   6  20 NW7       30.14R
HASKELL          N/A     44   2  18 NW9       30.13R WCI  38
THROCKMORTON     N/A     46  18  31 NW6       30.13R
STAMFORD         N/A     44  10  25 W9        30.15R WCI  39
CLYDE            N/A     46  12  25 W6        30.15R
HAMBY            N/A     39  10  30 W6          N/A  WCI  35
IVIE RESERVOIR   N/A     48  16  27 NW5         N/A
COLORADO BEND    N/A     50  14  23 W2          N/A
$$

SUPPLEMENTAL OBSERVATIONS (NWS SHREVEPORT AREA)

CITY           SKY/WX    TMP DP  RH WIND       PRES   REMARKS
CLARKSVILLE      N/A     46  28  49 W1          N/A
TEXARKANA        N/A     50  28  43 W3G15       N/A
LINDEN           N/A     52  27  37 W5          N/A
CADDO LAKE       N/A     45  30  57 CALM        N/A
GILMER           N/A     52  25  35 W6G15       N/A
HENDERSON        N/A     52  23  32 NW7         N/A
LUFKIN           N/A     52  28  40 MISG        N/A
N SABINE NF      N/A     52  28  40 MISG        N/A
S SABINE NF      N/A     52  32  46 CALM        N/A
$$

SUPPLEMENTAL OBSERVATIONS ARE A COLLECTION OF AUTOMATED INSTRUMENTS
THAT ARE MAINTAINED BY A VARIETY OF FEDERAL AND STATE AGENCIES.
CERTAIN ELEMENTS...SUCH AS HUMIDITY VALUES AND SUSTAINED WIND
SPEEDS...MAY BE APPROXIMATED.





USA.gov is the U.S. government's official web portal to all federal, state and local government web resources and services.